• In Uzbekistan
  • List of Countries
  • For 7 days
  • Water Temperature
  • Satellite Maps
  • Weather Map
  • Weather Widgets
  • user-avatar
    Login

    Hourly Weather Lodyna

    Today, 26 April, Thursday

    Time Temperature Precipitation Wind Pressure Humidity
    00:00 +14°C° 0.1 mm 3 mps 717 mmHg 84%
    01:00 +13°C° 0.1 mm 3 mps 717 mmHg 87%
    02:00 +13°C° 0 mm 2 mps 717 mmHg 92%
    03:00 +12°C° 0 mm 1 mps 717 mmHg 93%
    04:00 +12°C° 0 mm 1 mps 717 mmHg 93%
    05:00 +11°C° 0 mm 1 mps 718 mmHg 94%
    06:00 +12°C° 0 mm 1 mps 718 mmHg 90%
    07:00 +13°C° 0 mm 1 mps 718 mmHg 85%
    08:00 +14°C° 0 mm 2 mps 719 mmHg 80%
    09:00 +14°C° 0 mm 1 mps 719 mmHg 77%
    10:00 +15°C° 0 mm 1 mps 719 mmHg 75%
    11:00 +16°C° 0 mm 1 mps 719 mmHg 72%
    12:00 +15°C° 0.5 mm 1 mps 719 mmHg 75%
    13:00 +15°C° 0.5 mm 1 mps 719 mmHg 78%
    14:00 +14°C° 0.5 mm 1 mps 718 mmHg 82%
    15:00 +14°C° 0.4 mm 1 mps 718 mmHg 82%
    16:00 +14°C° 0.4 mm 1 mps 718 mmHg 83%
    17:00 +14°C° 0.4 mm 1 mps 718 mmHg 83%
    18:00 +13°C° 0.1 mm 1 mps 718 mmHg 86%
    19:00 +12°C° 0.1 mm 1 mps 719 mmHg 89%
    20:00 +12°C° 0.1 mm 1 mps 719 mmHg 91%
    21:00 +10°C° 0 mm 2 mps 719 mmHg 90%
    22:00 +10°C° 0 mm 2 mps 719 mmHg 88%
    23:00 +9°C° 0 mm 3 mps 720 mmHg 87%

    Tomorrow, 27 April, Friday

    Time Temperature Precipitation Wind Pressure Humidity
    00:00 +9°C° 0 mm 2 mps 720 mmHg 87%
    01:00 +8°C° 0 mm 2 mps 720 mmHg 88%
    02:00 +7°C° 0 mm 2 mps 721 mmHg 88%
    03:00 +6°C° 0 mm 2 mps 721 mmHg 89%
    04:00 +6°C° 0 mm 2 mps 721 mmHg 91%
    05:00 +6°C° 0 mm 1 mps 721 mmHg 92%
    06:00 +6°C° 0 mm 2 mps 721 mmHg 87%
    07:00 +7°C° 0 mm 2 mps 722 mmHg 82%
    08:00 +8°C° 0 mm 2 mps 722 mmHg 77%
    09:00 +10°C° 0 mm 2 mps 723 mmHg 69%
    10:00 +12°C° 0 mm 2 mps 723 mmHg 61%
    11:00 +14°C° 0 mm 2 mps 723 mmHg 52%
    12:00 +15°C° 0 mm 2 mps 723 mmHg 49%
    13:00 +16°C° 0 mm 1 mps 723 mmHg 45%
    14:00 +18°C° 0 mm 1 mps 723 mmHg 42%
    15:00 +18°C° 0 mm 1 mps 723 mmHg 43%
    16:00 +16°C° 0 mm 1 mps 722 mmHg 43%
    17:00 +16°C° 0 mm 1 mps 722 mmHg 44%
    18:00 +14°C° 0 mm 1 mps 722 mmHg 51%
    19:00 +12°C° 0 mm 1 mps 722 mmHg 59%
    20:00 +10°C° 0 mm 1 mps 722 mmHg 67%
    21:00 +9°C° 0 mm 2 mps 722 mmHg 70%
    22:00 +8°C° 0 mm 2 mps 722 mmHg 73%
    23:00 +7°C° 0 mm 2 mps 722 mmHg 76%

    Day after tomorrow, 28 April, Saturday

    Time Temperature Precipitation Wind Pressure Humidity
    00:00 +7°C° 0 mm 2 mps 722 mmHg 76%
    01:00 +7°C° 0 mm 2 mps 722 mmHg 77%
    02:00 +7°C° 0 mm 2 mps 722 mmHg 77%
    03:00 +7°C° 0 mm 2 mps 722 mmHg 75%
    04:00 +6°C° 0 mm 2 mps 722 mmHg 74%
    05:00 +6°C° 0 mm 2 mps 721 mmHg 72%
    06:00 +8°C° 0 mm 2 mps 722 mmHg 67%
    07:00 +10°C° 0 mm 2 mps 722 mmHg 62%
    08:00 +13°C° 0 mm 2 mps 722 mmHg 56%
    09:00 +15°C° 0 mm 2 mps 722 mmHg 52%
    10:00 +17°C° 0 mm 3 mps 722 mmHg 48%
    11:00 +20°C° 0 mm 3 mps 722 mmHg 44%
    12:00 +20°C° 0 mm 4 mps 722 mmHg 44%
    13:00 +21°C° 0 mm 4 mps 722 mmHg 43%
    14:00 +22°C° 0 mm 4 mps 722 mmHg 42%
    15:00 +22°C° 0 mm 4 mps 721 mmHg 46%
    16:00 +22°C° 0 mm 4 mps 721 mmHg 49%
    17:00 +22°C° 0 mm 3 mps 721 mmHg 52%
    18:00 +19°C° 0 mm 3 mps 721 mmHg 61%
    19:00 +17°C° 0 mm 3 mps 721 mmHg 69%
    20:00 +15°C° 0 mm 2 mps 720 mmHg 78%
    21:00 +15°C° 0 mm 2 mps 721 mmHg 80%
    22:00 +14°C° 0 mm 2 mps 721 mmHg 82%
    23:00 +14°C° 0 mm 2 mps 721 mmHg 85%

    29 April, Sunday

    Time Temperature Precipitation Wind Pressure Humidity
    00:00 +14°C° 0 mm 2 mps 721 mmHg 85%
    01:00 +14°C° 0 mm 2 mps 721 mmHg 86%
    02:00 +14°C° 0 mm 2 mps 721 mmHg 87%
    03:00 +14°C° 0.2 mm 2 mps 721 mmHg 87%
    04:00 +14°C° 0.2 mm 2 mps 721 mmHg 88%
    05:00 +14°C° 0.2 mm 2 mps 721 mmHg 88%
    06:00 +15°C° 0.3 mm 2 mps 721 mmHg 84%
    07:00 +17°C° 0.3 mm 3 mps 721 mmHg 81%
    08:00 +18°C° 0.3 mm 3 mps 721 mmHg 77%
    09:00 +20°C° 0 mm 3 mps 721 mmHg 69%
    10:00 +22°C° 0 mm 4 mps 721 mmHg 62%
    11:00 +25°C° 0 mm 4 mps 721 mmHg 54%
    12:00 +25°C° 0 mm 4 mps 721 mmHg 52%
    13:00 +26°C° 0 mm 4 mps 721 mmHg 49%
    14:00 +27°C° 0 mm 3 mps 721 mmHg 46%
    15:00 +27°C° 0 mm 3 mps 720 mmHg 48%
    16:00 +26°C° 0 mm 3 mps 720 mmHg 50%
    17:00 +26°C° 0 mm 3 mps 720 mmHg 52%
    18:00 +24°C° 0 mm 2 mps 719 mmHg 61%
    19:00 +20°C° 0 mm 2 mps 719 mmHg 70%
    20:00 +18°C° 0 mm 2 mps 719 mmHg 79%
    21:00 +17°C° 0 mm 2 mps 719 mmHg 81%
    22:00 +16°C° 0 mm 2 mps 719 mmHg 82%
    23:00 +16°C° 0 mm 2 mps 719 mmHg 84%

    30 April, Monday

    Time Temperature Precipitation Wind Pressure Humidity
    00:00 +15°C° 0 mm 2 mps 718 mmHg 82%
    01:00 +15°C° 0 mm 2 mps 718 mmHg 81%
    02:00 +15°C° 0 mm 2 mps 718 mmHg 79%
    03:00 +15°C° 0 mm 2 mps 718 mmHg 79%
    04:00 +14°C° 0 mm 2 mps 718 mmHg 79%
    05:00 +14°C° 0 mm 2 mps 717 mmHg 79%
    06:00 +14°C° 0 mm 3 mps 718 mmHg 73%
    07:00 +17°C° 0 mm 3 mps 718 mmHg 66%
    08:00 +18°C° 0 mm 4 mps 718 mmHg 60%
    09:00 +20°C° 0 mm 4 mps 718 mmHg 55%
    10:00 +21°C° 0 mm 4 mps 718 mmHg 50%
    11:00 +23°C° 0 mm 5 mps 718 mmHg 46%
    12:00 +23°C° 0 mm 5 mps 718 mmHg 45%
    13:00 +25°C° 0 mm 5 mps 718 mmHg 45%
    14:00 +25°C° 0 mm 5 mps 718 mmHg 44%
    15:00 +25°C° 0 mm 5 mps 718 mmHg 48%
    16:00 +23°C° 0 mm 4 mps 718 mmHg 51%
    17:00 +23°C° 0 mm 4 mps 718 mmHg 55%
    18:00 +21°C° 0 mm 3 mps 718 mmHg 62%
    19:00 +19°C° 0 mm 3 mps 718 mmHg 69%
    20:00 +17°C° 0 mm 2 mps 718 mmHg 76%
    21:00 +17°C° 0.1 mm 2 mps 718 mmHg 80%
    22:00 +16°C° 0.1 mm 2 mps 718 mmHg 83%
    23:00 +15°C° 0.1 mm 1 mps 719 mmHg 86%

    1 May, Tuesday

    Time Temperature Precipitation Wind Pressure Humidity
    00:00 +14°C° 0.1 mm 1 mps 719 mmHg 88%
    01:00 +14°C° 0.1 mm 1 mps 719 mmHg 90%
    02:00 +14°C° 0.1 mm 1 mps 719 mmHg 91%
    03:00 +13°C° 0.1 mm 1 mps 719 mmHg 92%
    04:00 +13°C° 0.1 mm 1 mps 719 mmHg 93%
    05:00 +13°C° 0.1 mm 1 mps 720 mmHg 94%
    06:00 +14°C° 0 mm 1 mps 720 mmHg 90%
    07:00 +16°C° 0 mm 1 mps 720 mmHg 85%
    08:00 +18°C° 0 mm 1 mps 720 mmHg 81%
    09:00 +19°C° 0.2 mm 2 mps 720 mmHg 75%
    10:00 +20°C° 0.2 mm 2 mps 720 mmHg 69%
    11:00 +23°C° 0.2 mm 2 mps 720 mmHg 63%
    12:00 +24°C° 0.5 mm 2 mps 720 mmHg 61%
    13:00 +24°C° 0.5 mm 2 mps 720 mmHg 60%
    14:00 +25°C° 0.5 mm 2 mps 720 mmHg 58%
    15:00 +25°C° 0.3 mm 2 mps 720 mmHg 58%
    16:00 +25°C° 0.3 mm 2 mps 719 mmHg 59%
    17:00 +25°C° 0.3 mm 2 mps 719 mmHg 59%
    18:00 +23°C° 0 mm 2 mps 719 mmHg 67%
    19:00 +20°C° 0 mm 2 mps 718 mmHg 75%
    20:00 +18°C° 0 mm 2 mps 718 mmHg 83%
    21:00 +17°C° 0 mm 2 mps 718 mmHg 84%
    22:00 +16°C° 0 mm 2 mps 718 mmHg 86%
    23:00 +16°C° 0 mm 2 mps 718 mmHg 88%
    Show more